Cedar Rapids, IA

11:23 PM CST on December 11, 2019 (GMT -0600)
The Eastern Iowa Airport

Weather History for KCID - August, 2019

Change the Weather History Date:

Monday, August 12, 2019

  Actual Average Record
Temperature  
Mean Temperature 74 °F 72 °F  
Max Temperature 78 °F 82 °F 99 °F (1936)
Min Temperature 69 °F 61 °F 43 °F (1931)
Degree Days  
Heating Degree Days 0 0  
Month to date heating degree days 0 0  
Since 1 June heating degree days 11 33  
Since 1 July heating degree days 0 4  
Cooling Degree Days 9 7  
Month to date cooling degree days 86 86  
Year to date cooling degree days 588 553  
Since 1 June cooling degree days 560 504  
Growing Degree Days 24 (Base 50)    
Moisture  
Dew Point 71 °F    
Average Humidity 94    
Maximum Humidity 100    
Minimum Humidity 87    
Precipitation  
Precipitation 0.14 in 0.14 in 2.85 in (1902)
Month to date precipitation 1.23 1.69  
Year to date precipitation 23.82 22.51  
Sea Level Pressure  
Sea Level Pressure 29.86 in    
Wind  
Wind Speed 5 mph (ESE)    
Max Wind Speed 18 mph    
Max Gust Speed 24 mph    
Visibility 4 miles    
Events Fog , Rain    
T = Trace of Precipitation, MM = Missing Value Source: NWS Daily Summary

Daily Weather History Graph

Daily Weather History Graph

Search for Another Location

Airport or City:

Astronomy

Aug. 12, 2019 Rise Set
Actual Time 6:11 AM CDT 8:11 PM CDT
Civil Twilight 5:41 AM CDT 8:41 PM CDT
Nautical Twilight 5:04 AM CDT 9:18 PM CDT
Astronomical Twilight 4:23 AM CDT 9:58 PM CDT
Moon 6:43 PM CDT 3:18 AM CDT
Length of Visible Light 15h 00m
Length of Day
13h 59m
Waxing Gibbous, 93% of the Moon is Illuminated
Aug 12
Waxing Gibbous
Aug 15
Full
Aug 23
Last Quarter
Aug 30
New
Sep 5
First Quarter

Hourly Weather History & Observations

Time (CDT) Temp. Dew Point Humidity Pressure Visibility Wind Dir Wind Speed Gust Speed Precip Events Conditions
12:01 AM 70.0 °F 70.0 °F 100% 29.92 in 0.5 mi South 3.5 mph - N/A Fog Fog
12:13 AM 69.1 °F 69.1 °F 100% 29.92 in 0.2 mi Calm Calm - N/A Fog Fog
12:20 AM 69.1 °F 69.1 °F 100% 29.93 in 0.2 mi Calm Calm - N/A Fog Fog
12:28 AM 70.0 °F 70.0 °F 100% 29.93 in 0.2 mi Calm Calm - N/A Fog Fog
12:43 AM 71.1 °F 71.1 °F 100% 29.94 in 0.5 mi Calm Calm - N/A Fog Fog
12:52 AM 70.0 °F 70.0 °F 100% 29.93 in 0.2 mi Calm Calm - N/A Fog Fog
1:02 AM 69.1 °F 69.1 °F 100% 29.94 in 0.2 mi Calm Calm - N/A Fog Fog
1:31 AM 70.0 °F 70.0 °F 100% 29.93 in 1.0 mi ESE 3.5 mph - N/A   Overcast
1:34 AM 69.1 °F 69.1 °F 100% 29.93 in 3.0 mi ESE 3.5 mph - N/A   Overcast
1:39 AM 70.0 °F 70.0 °F 100% 29.93 in 2.0 mi Calm Calm - N/A   Mostly Cloudy
1:41 AM 70.0 °F 70.0 °F 100% 29.93 in 1.8 mi East 4.6 mph - N/A   Mostly Cloudy
1:45 AM 70.0 °F 70.0 °F 100% 29.93 in 2.0 mi ESE 4.6 mph - N/A   Mostly Cloudy
1:50 AM 69.8 °F 69.8 °F 100% 29.93 in 3.0 mi Calm Calm - N/A   Overcast
1:52 AM 69.1 °F 69.1 °F 100% 29.91 in 2.5 mi Calm Calm - N/A   Overcast
2:02 AM 70.0 °F 70.0 °F 100% 29.92 in 1.8 mi Calm Calm - N/A   Mostly Cloudy
2:14 AM 69.1 °F 69.1 °F 100% 29.91 in 0.5 mi ESE 3.5 mph - N/A Fog Fog
2:28 AM 69.1 °F 69.1 °F 100% 29.90 in 0.2 mi Calm Calm - N/A Fog Fog
2:35 AM 70.0 °F 70.0 °F 100% 29.90 in 0.5 mi Calm Calm - N/A Fog Fog
2:48 AM 69.8 °F 69.8 °F 100% 29.90 in 1.0 mi Calm Calm - N/A   Overcast
2:52 AM 70.0 °F 70.0 °F 100% 29.88 in 1.0 mi Calm Calm - N/A   Overcast
3:07 AM 70.0 °F 70.0 °F 100% 29.90 in 0.5 mi SE 3.5 mph - N/A Fog Fog
3:16 AM 69.1 °F 69.1 °F 100% 29.90 in 0.2 mi ESE 4.6 mph - N/A Fog Fog
3:22 AM 69.1 °F 69.1 °F 100% 29.90 in 0.5 mi SE 3.5 mph - N/A Fog Fog
3:27 AM 69.1 °F 69.1 °F 100% 29.90 in 0.2 mi SE 4.6 mph - N/A Fog Fog
3:52 AM 70.0 °F 70.0 °F 100% 29.87 in 0.2 mi ESE 5.8 mph - N/A Fog Fog
4:02 AM 70.0 °F 70.0 °F 100% 29.88 in 0.2 mi ESE 4.6 mph - N/A Fog Fog
4:11 AM 70.0 °F 70.0 °F 100% 29.88 in 0.2 mi ESE 5.8 mph - N/A Fog Fog
4:52 AM 71.1 °F 71.1 °F 100% 29.84 in 0.2 mi ESE 6.9 mph - N/A Fog Fog
5:52 AM 71.1 °F 71.1 °F 100% 29.86 in 0.2 mi SE 5.8 mph - N/A Fog Fog
6:52 AM 70.0 °F 70.0 °F 100% 29.90 in 1.0 mi Calm Calm - N/A   Mostly Cloudy
7:13 AM 70.0 °F 70.0 °F 100% 29.92 in 0.2 mi SW 3.5 mph - N/A Fog Fog
7:45 AM 70.0 °F 70.0 °F 100% 29.92 in 0.2 mi South 3.5 mph - N/A Fog Fog
7:52 AM 70.0 °F 70.0 °F 100% 29.90 in 0.2 mi South 3.5 mph - N/A Fog Fog
8:25 AM 70.0 °F 70.0 °F 100% 29.92 in 0.5 mi South 5.8 mph - N/A Fog Fog
8:38 AM 70.0 °F 70.0 °F 100% 29.91 in 1.2 mi South 4.6 mph - N/A   Overcast
8:52 AM 70.0 °F 70.0 °F 100% 29.89 in 1.5 mi SSE 8.1 mph - 0.00 in Rain Light Rain
8:59 AM 70.0 °F 70.0 °F 100% 29.89 in 1.5 mi SE 11.5 mph - 0.01 in Rain Light Rain
9:13 AM 70.0 °F 70.0 °F 100% 29.85 in 2.0 mi SE 9.2 mph 21.9 mph 0.02 in Rain Light Rain
9:29 AM 71.1 °F 71.1 °F 100% 29.82 in 3.0 mi East 12.7 mph - 0.03 in Rain Light Rain
9:52 AM 71.1 °F 71.1 °F 100% 29.77 in 3.0 mi East 12.7 mph 21.9 mph 0.03 in   Partly Cloudy
10:52 AM 73.0 °F 72.0 °F 96% 29.79 in 8.0 mi East 6.9 mph - N/A   Overcast
11:39 AM 73.0 °F 72.0 °F 96% 29.82 in 6.0 mi ESE 3.5 mph - N/A   Overcast
11:49 AM 73.4 °F 71.6 °F 94% 29.86 in 6.0 mi West 5.8 mph - N/A   Overcast
11:52 AM 73.0 °F 72.0 °F 96% 29.86 in 7.0 mi West 5.8 mph - N/A   Overcast
12:06 PM 73.0 °F 72.0 °F 96% 29.87 in 1.8 mi NW 3.5 mph - 0.03 in Rain Rain
12:34 PM 73.9 °F 72.0 °F 93% 29.86 in 1.8 mi Calm Calm - 0.06 in Rain Light Rain
12:41 PM 73.0 °F 72.0 °F 96% 29.86 in 5.0 mi NW 3.5 mph - 0.06 in Rain Light Rain
12:52 PM 73.0 °F 73.0 °F 100% 29.85 in 5.0 mi Calm Calm - 0.07 in Rain Light Rain
1:52 PM 73.9 °F 73.0 °F 97% 29.83 in 5.0 mi ESE 3.5 mph - 0.04 in   Overcast
2:52 PM 75.0 °F 73.0 °F 94% 29.80 in 9.0 mi East 4.6 mph - 0.00 in   Overcast
3:52 PM 77.0 °F 73.0 °F 88% 29.78 in 10.0 mi SE 6.9 mph - N/A   Mostly Cloudy
4:11 PM 78.1 °F 73.9 °F 87% 29.80 in 10.0 mi SE 5.8 mph - N/A   Overcast
4:21 PM 78.1 °F 73.0 °F 84% 29.79 in 10.0 mi ESE 4.6 mph - N/A   Overcast
4:37 PM 77.0 °F 72.0 °F 84% 29.80 in 10.0 mi ESE 4.6 mph - N/A   Overcast
4:52 PM 77.0 °F 73.0 °F 88% 29.78 in 10.0 mi East 4.6 mph - N/A   Overcast
5:14 PM 78.1 °F 73.0 °F 84% 29.80 in 10.0 mi NNE 4.6 mph - N/A   Overcast
5:52 PM 77.0 °F 73.0 °F 88% 29.78 in 10.0 mi ENE 8.1 mph - N/A   Overcast
6:52 PM 73.0 °F 71.1 °F 93% 29.79 in 10.0 mi SSW 4.6 mph - 0.00 in Rain Light Rain
7:20 PM 73.9 °F 73.0 °F 97% 29.81 in 10.0 mi East 5.8 mph - 0.00 in   Overcast
7:52 PM 73.0 °F 71.1 °F 93% 29.78 in 10.0 mi ESE 5.8 mph - 0.00 in   Mostly Cloudy
8:18 PM 72.0 °F 70.0 °F 93% 29.80 in 10.0 mi ENE 5.8 mph - N/A   Mostly Cloudy
8:52 PM 73.0 °F 70.0 °F 90% 29.79 in 10.0 mi East 4.6 mph - N/A   Overcast
9:35 PM 72.0 °F 71.1 °F 97% 29.80 in 9.0 mi NE 4.6 mph - N/A   Overcast
9:52 PM 72.0 °F 71.1 °F 97% 29.79 in 9.0 mi NNE 4.6 mph - N/A   Overcast
10:08 PM 72.0 °F 72.0 °F 100% 29.81 in 6.0 mi North 5.8 mph - N/A   Overcast
10:52 PM 73.0 °F 72.0 °F 96% 29.80 in 5.0 mi ENE 4.6 mph - 0.00 in   Overcast
11:37 PM 72.0 °F 72.0 °F 100% 29.82 in 5.0 mi NE 6.9 mph - 0.00 in   Overcast
11:52 PM 72.0 °F 72.0 °F 100% 29.81 in 6.0 mi NE 4.6 mph - 0.00 in   Overcast